Weather History for Medford, WI

Change the Weather History Date:

Sunday, September 15, 2013

  Actual Average Record
Temperature  
Mean Temperature 50 °F -  
Max Temperature 62 °F 65 °F 81 °F (1969)
Min Temperature 37 °F 45 °F 26 °F (2007)
Degree Days  
Heating Degree Days 16    
Moisture  
Dew Point 49 °F    
Average Humidity 88    
Maximum Humidity 99    
Minimum Humidity 74    
Precipitation  
Precipitation 0.34 in - - ()
Sea Level Pressure  
Sea Level Pressure 30.09 in    
Wind  
Wind Speed 4 mph (NE)    
Max Wind Speed 15 mph    
Max Gust Speed 20 mph    
Visibility 9 miles    
Events Rain    
Averages and records for this station are not official NWS values.
T = Trace of Precipitation, MM = Missing Value Source: NWS Daily Summary

Daily Weather History Graph

Daily Weather History Graph

Search for Another Location

Airport:

Trip Planner

Search our weather history database for the weather conditions in past years. The results will help you decide how hot, cold, wet, or windy it might be!

Date:

Astronomy

Sep. 15, 2013 Rise Set
Actual Time 6:40 AM CDT 7:11 PM CDT
Civil Twilight 6:10 AM CDT 7:41 PM CDT
Nautical Twilight 5:35 AM CDT 8:15 PM CDT
Astronomical Twilight 4:59 AM CDT 8:52 PM CDT
Moon 4:46 PM CDT (9/15) 2:08 AM CDT (9/15)
Length of Visible Light 13h 30m
Length of Day
12h 31m
Waxing Gibbous, 82% of the Moon is Illuminated
Sep 15
Waxing Gibbous
Sep 19
Full
Sep 26
Last Quarter
Oct 4
New
Oct 11
First Quarter

Hourly Weather History & Observations

Time (CDT) Temp. Windchill Dew Point Humidity Pressure Visibility Wind Dir Wind Speed Gust Speed Precip Events Conditions
12:15 AM 52.9 °F - 52.0 °F 97% 30.00 in 10.0 mi Calm Calm - 0.01 in Rain Rain
12:35 AM 52.7 °F - 51.8 °F 97% 30.00 in 10.0 mi Calm Calm - 0.01 in Rain Light Rain
12:55 AM 52.2 °F - 51.8 °F 99% 30.00 in 10.0 mi Calm Calm - 0.01 in   Light Drizzle
1:15 AM 52.0 °F - 51.4 °F 98% 30.00 in 10.0 mi Calm Calm - N/A Rain Light Rain
1:35 AM 52.2 °F - 51.4 °F 97% 30.00 in 10.0 mi Calm Calm - N/A   Overcast
1:55 AM 52.2 °F - 51.4 °F 97% 30.00 in 10.0 mi Calm Calm - N/A   Overcast
2:15 AM 52.3 °F - 51.8 °F 98% 29.98 in 10.0 mi Calm Calm - N/A   Overcast
2:35 AM 52.7 °F - 51.4 °F 95% 29.98 in 10.0 mi Calm Calm - N/A   Overcast
2:55 AM 52.3 °F - 50.9 °F 95% 29.98 in 7.0 mi SE 4.6 mph - 0.01 in   Heavy Drizzle
3:15 AM 52.2 °F - 50.9 °F 95% 29.98 in 10.0 mi Calm Calm - N/A   Drizzle
3:35 AM 52.2 °F - 51.1 °F 96% 29.97 in 5.0 mi SE 3.5 mph - N/A   Drizzle
3:55 AM 52.0 °F - 51.1 °F 97% 29.97 in 4.0 mi ESE 4.6 mph - 0.01 in Rain Light Rain
4:15 AM 52.0 °F - 51.3 °F 97% 29.96 in 4.0 mi SE 4.6 mph - 0.01 in   Heavy Drizzle
4:35 AM 52.0 °F - 51.3 °F 97% 29.96 in 4.0 mi SE 3.5 mph - 0.02 in   Heavy Drizzle
4:55 AM 52.0 °F - 51.4 °F 98% 29.96 in 4.0 mi Calm Calm - 0.05 in Rain Rain
5:15 AM 52.0 °F - 51.4 °F 98% 29.96 in 5.0 mi ESE 3.5 mph - 0.02 in Rain Light Rain
5:35 AM 52.2 °F - 51.8 °F 99% 29.98 in 5.0 mi Calm Calm - 0.03 in Rain Light Rain
5:55 AM 52.2 °F - 51.8 °F 99% 29.98 in 3.0 mi Calm Calm - 0.07 in Rain Heavy Rain
6:15 AM 52.0 °F - 51.8 °F 99% 29.98 in 4.0 mi Calm Calm - 0.05 in Rain Rain
6:35 AM 51.8 °F - 51.4 °F 99% 29.98 in 7.0 mi Calm Calm - 0.08 in Rain Rain
6:55 AM 51.8 °F - 51.3 °F 98% 29.99 in 7.0 mi East 3.5 mph - 0.11 in Rain Rain
7:15 AM 51.8 °F - 51.3 °F 98% 29.98 in 7.0 mi East 4.6 mph - 0.02 in Rain Rain
7:35 AM 51.8 °F - 51.3 °F 98% 30.00 in 5.0 mi Calm Calm - 0.06 in Rain Rain
7:55 AM 52.0 °F - 51.6 °F 99% 30.00 in 10.0 mi East 3.5 mph - 0.08 in Rain Light Rain
8:15 AM 52.3 °F - 51.8 °F 98% 30.00 in 10.0 mi East 4.6 mph - N/A   Drizzle
8:35 AM 52.7 °F - 51.8 °F 97% 30.00 in 10.0 mi East 3.5 mph - N/A   Overcast
8:55 AM 52.9 °F - 52.0 °F 97% 30.01 in 10.0 mi East 3.5 mph - N/A   Overcast
9:15 AM 53.4 °F - 52.0 °F 95% 30.02 in 10.0 mi NE 3.5 mph - N/A   Overcast
9:35 AM 53.6 °F - 52.2 °F 95% 30.03 in 10.0 mi NE 3.5 mph - N/A   Overcast
9:55 AM 54.0 °F - 52.3 °F 94% 30.03 in 10.0 mi ENE 5.8 mph - N/A   Overcast
10:15 AM 54.5 °F - 52.5 °F 93% 30.04 in 10.0 mi NE 6.9 mph - N/A   Overcast
10:35 AM 54.9 °F - 52.3 °F 91% 30.05 in 10.0 mi NE 3.5 mph - N/A   Overcast
10:55 AM 56.1 °F - 52.7 °F 88% 30.05 in 10.0 mi East 4.6 mph - N/A   Overcast
11:15 AM 56.3 °F - 52.7 °F 88% 30.05 in 10.0 mi NNE 5.8 mph - N/A   Overcast
11:35 AM 57.0 °F - 52.9 °F 86% 30.06 in 10.0 mi ENE 5.8 mph - N/A   Overcast
11:55 AM 58.8 °F - 52.5 °F 80% 30.06 in 10.0 mi NE 8.1 mph - N/A   Overcast
12:15 PM 60.4 °F - 53.4 °F 78% 30.06 in 10.0 mi ENE 9.2 mph - N/A   Overcast
12:35 PM 60.1 °F - 52.9 °F 77% 30.06 in 10.0 mi NE 6.9 mph - N/A   Overcast
12:55 PM 61.9 °F - 53.4 °F 74% 30.07 in 10.0 mi NNE 8.1 mph - N/A   Mostly Cloudy
1:15 PM 59.9 °F - 52.5 °F 77% 30.08 in 10.0 mi North 8.1 mph - N/A   Overcast
1:35 PM 61.0 °F - 52.5 °F 74% 30.08 in 10.0 mi North 8.1 mph - N/A   Overcast
1:55 PM 59.5 °F - 52.2 °F 77% 30.09 in 10.0 mi North 10.4 mph - N/A   Overcast
2:15 PM 59.9 °F - 52.9 °F 78% 30.09 in 10.0 mi North 10.4 mph - N/A   Overcast
2:35 PM 60.1 °F - 53.6 °F 79% 30.10 in 10.0 mi North 10.4 mph - N/A   Overcast
2:55 PM 60.3 °F - 52.9 °F 77% 30.10 in 10.0 mi NNE 11.5 mph - N/A   Overcast
3:15 PM 58.8 °F - 52.7 °F 80% 30.10 in 10.0 mi NNE 12.7 mph - N/A   Overcast
3:35 PM 59.0 °F - 53.1 °F 81% 30.12 in 10.0 mi North 8.1 mph - N/A   Overcast
3:55 PM 58.6 °F - 52.7 °F 81% 30.13 in 10.0 mi North 9.2 mph - N/A Rain Light Rain
4:15 PM 57.9 °F - 51.8 °F 80% 30.14 in 10.0 mi NNE 8.1 mph 11.5 mph N/A   Overcast
4:35 PM 57.7 °F - 51.1 °F 78% 30.14 in 10.0 mi North 12.7 mph 16.1 mph N/A   Overcast
4:55 PM 57.2 °F - 50.4 °F 78% 30.16 in 10.0 mi North 11.5 mph - N/A   Overcast
5:15 PM 55.8 °F - 49.6 °F 80% 30.17 in 10.0 mi North 9.2 mph 16.1 mph N/A   Overcast
5:35 PM 55.0 °F - 49.1 °F 80% 30.18 in 10.0 mi North 10.4 mph 16.1 mph N/A   Overcast
5:55 PM 54.9 °F - 48.4 °F 79% 30.19 in 10.0 mi North 11.5 mph 17.3 mph N/A   Overcast
6:15 PM 54.5 °F - 47.3 °F 77% 30.20 in 10.0 mi North 10.4 mph - N/A   Overcast
6:35 PM 54.1 °F - 47.1 °F 77% 30.21 in 10.0 mi North 11.5 mph - N/A   Overcast
6:55 PM 53.4 °F - 46.8 °F 78% 30.22 in 10.0 mi North 13.8 mph 17.3 mph N/A   Overcast
7:15 PM 51.8 °F - 44.8 °F 77% 30.22 in 10.0 mi North 15.0 mph 19.6 mph N/A   Overcast
7:35 PM 51.1 °F - 43.0 °F 74% 30.24 in 10.0 mi North 11.5 mph 17.3 mph N/A   Overcast
7:55 PM 50.5 °F - 42.6 °F 74% 30.24 in 10.0 mi North 11.5 mph - N/A   Overcast
8:15 PM 50.0 °F - 42.4 °F 75% 30.26 in 10.0 mi NNE 10.4 mph - N/A   Overcast
8:35 PM 48.2 °F - 41.2 °F 77% 30.26 in 10.0 mi NNE 9.2 mph - N/A   Overcast
8:55 PM 47.1 °F - 40.6 °F 78% 30.27 in 10.0 mi NNE 8.1 mph - N/A   Overcast
9:15 PM 46.0 °F 40.2 °F 39.2 °F 77% 30.27 in 10.0 mi NNE 12.7 mph - N/A   Scattered Clouds
9:35 PM 45.5 °F 40.8 °F 39.4 °F 79% 30.28 in 10.0 mi North 9.2 mph - N/A   Mostly Cloudy
9:55 PM 45.1 °F 40.3 °F 39.2 °F 80% 30.28 in 10.0 mi North 9.2 mph - N/A   Overcast
10:15 PM 43.7 °F 39.1 °F 39.2 °F 84% 30.28 in 10.0 mi NNE 8.1 mph - N/A   Mostly Cloudy
10:35 PM 42.1 °F 37.7 °F 38.5 °F 87% 30.29 in 10.0 mi NNE 6.9 mph - N/A   Scattered Clouds
10:55 PM 40.5 °F 38.4 °F 38.1 °F 91% 30.29 in 10.0 mi NNE 3.5 mph - N/A   Clear
11:15 PM 40.1 °F - 37.6 °F 91% 30.30 in 10.0 mi Calm Calm - N/A   Clear
11:35 PM 38.1 °F - 37.2 °F 97% 30.31 in 10.0 mi Calm Calm - N/A   Clear
11:55 PM 37.0 °F - 36.5 °F 98% 30.31 in 10.0 mi Calm Calm - N/A   Clear